Weather History for Scarborough, Trinidad And Tobago

Change the Weather History Date:

Thursday, October 16, 2014

  Actual Average Record
Temperature  
Mean Temperature 82 °F -  
Max Temperature 87 °F 86 °F 91 °F (2005)
Min Temperature 77 °F 76 °F 75 °F (2011)
Cooling Degree Days 17    
Growing Degree Days 32 (Base 50)    
Moisture  
Dew Point 73 °F    
Average Humidity 74    
Maximum Humidity 83    
Minimum Humidity 62    
Precipitation  
Precipitation 0.00 in - - ()
Sea Level Pressure  
Sea Level Pressure 29.91 in    
Wind  
Wind Speed 1 mph ()    
Max Wind Speed 6 mph    
Max Gust Speed -    
Visibility 6.2 miles    
Events      
Averages and records for this station are not official NWS values.
T = Trace of Precipitation, MM = Missing Value Source: Averaged Metar Reports

Daily Weather History Graph

Daily Weather History Graph

Search for Another Location

Airport:

Trip Planner

Search our weather history database for the weather conditions in past years. The results will help you decide how hot, cold, wet, or windy it might be!

Date:

Astronomy

Oct. 16, 2014 Rise Set
Actual Time 5:52 AM AST 5:45 PM AST
Civil Twilight 5:31 AM AST 6:06 PM AST
Nautical Twilight 5:06 AM AST 6:30 PM AST
Astronomical Twilight 4:41 AM AST 6:55 PM AST
Moon 12:04 AM AST (10/16) 12:51 PM AST (10/16)
Length of Visible Light 12h 35m
Length of Day
11h 52m
Last Quarter, 42% of the Moon is Illuminated
Oct 16
Last Quarter
Oct 23
New
Oct 30
First Quarter
Nov 6
Full
Nov 14
Last Quarter

Hourly Weather History & Observations

Time (AST) Temp. Heat Index Dew Point Humidity Pressure Visibility Wind Dir Wind Speed Gust Speed Precip Events Conditions
1:00 AM 78.8 °F - 71.6 °F 78% 29.92 in 6.2 mi Calm Calm - N/A   Partly Cloudy
2:00 AM 77.0 °F - 71.6 °F 83% 29.92 in 6.2 mi Calm Calm - N/A   Partly Cloudy
3:00 AM 77.0 °F - 71.6 °F 83% 29.89 in 6.2 mi Calm Calm - N/A   Partly Cloudy
4:00 AM 77.0 °F - 71.6 °F 83% 29.89 in 6.2 mi Calm Calm - N/A   Partly Cloudy
6:00 AM 77.0 °F - 71.6 °F 83% 29.92 in 6.2 mi Calm Calm - N/A   Partly Cloudy
7:00 AM 78.8 °F - 71.6 °F 78% 29.95 in 6.2 mi Calm Calm - N/A   Partly Cloudy
8:00 AM 84.2 °F 90.9 °F 73.4 °F 70% 29.95 in 6.2 mi NE 3.5 mph - N/A   Partly Cloudy
9:00 AM 86.0 °F 91.8 °F 71.6 °F 62% 29.95 in 6.2 mi SE 5.8 mph - N/A   Partly Cloudy
11:00 AM 86.0 °F 95.1 °F 75.2 °F 70% 29.95 in 6.2 mi Calm Calm - N/A   Partly Cloudy
12:00 PM 86.0 °F 93.4 °F 73.4 °F 66% 29.92 in 6.2 mi Calm Calm - N/A   Partly Cloudy
1:00 PM 86.0 °F 95.1 °F 75.2 °F 70% 29.92 in 6.2 mi Calm Calm - N/A   Scattered Clouds
2:00 PM 86.0 °F 95.1 °F 75.2 °F 70% 29.89 in 6.2 mi Calm Calm - N/A   Scattered Clouds
3:00 PM 87.8 °F 97.6 °F 75.2 °F 66% 29.86 in 6.2 mi Calm Calm - N/A   Partly Cloudy
4:00 PM 86.0 °F 93.4 °F 73.4 °F 66% 29.86 in 6.2 mi NNE 5.8 mph - N/A   Partly Cloudy
5:00 PM 84.2 °F 90.9 °F 73.4 °F 70% 29.86 in 6.2 mi NE 5.8 mph - N/A   Partly Cloudy
6:00 PM 82.4 °F 88.2 °F 73.4 °F 74% 29.89 in 6.2 mi Calm Calm - N/A   Partly Cloudy
7:00 PM 82.4 °F 88.2 °F 73.4 °F 74% 29.89 in 6.2 mi Calm Calm - N/A   Partly Cloudy
8:00 PM 80.6 °F 85.4 °F 73.4 °F 79% 29.89 in - Calm Calm - N/A   Unknown
9:00 PM 78.8 °F - 71.6 °F 78% 29.92 in - Calm Calm - N/A   Unknown
10:00 PM 78.8 °F - 71.6 °F 78% 29.92 in - Calm Calm - N/A   Unknown
11:00 PM 78.8 °F - 71.6 °F 78% 29.92 in - Calm Calm - N/A   Unknown